Location: Poughquag
(41.6090°N, 73.6820°W)
Time: 12:13:58
(UTC-04:00)

Transit 2A - Pass Details

Date: 07 June 2020
Orbit: 592 x 967 km, 66.7° (Epoch: 06 July)

Event Time Altitude Azimuth Distance (km) Brightness Sun altitude
Rises 10:43:00 0° 154° (SSE) 3,013 9.4 56.9°
Reaches altitude 10° 10:46:38 10° 124° (SE) 2,189 9.1 57.5°
Maximum altitude 10:48:37 12° 101° (E) 2,081 9.0 57.8°
Drops below altitude 10° 10:50:40 10° 77° (ENE) 2,294 9.0 58.2°
Sets 10:54:41 0° 50° (NE) 3,329 9.5 58.9°
